GW5277 Weather Reports


time (UTC)temp
F
wind
direction
speed
knots
gust
knots
rain 1hr
in
rain 24hr
in
rain mn
in
humidity
%
barometer
mb
20260510072604 55 119 0.0 0.9 0.00 0.00 0.00 87 1013.1
20260510072101 55 145 0.9 2.6 0.00 0.00 0.00 87 1013.1
20260510071556 55 172 2.6 2.6 0.00 0.00 0.00 87 1013.1
20260510071055 55 147 0.0 1.7 0.00 0.00 0.00 87 1013.2
20260510070551 55 108 0.0 1.7 0.00 0.00 0.00 86 1013.1
20260510070048 54 194 1.7 1.7 0.00 0.00 0.00 89 1012.9
20260510065544 54 103 0.0 1.7 0.00 0.00 0.00 88 1013.1
20260510065041 54 131 0.0 0.0 0.00 0.00 0.00 88 1013.1
20260510064537 54 122 0.0 0.0 0.00 0.00 0.00 88 1013.1
20260510064034 55 149 0.9 0.9 0.00 0.00 0.00 86 1013.1
20260510063531 54 161 1.7 1.7 0.00 0.00 0.00 88 1013.1
20260510063028 54 114 0.9 1.7 0.00 0.00 0.00 88 1013.2
20260510062524 54 144 0.0 0.0 0.00 0.00 0.00 88 1013.3
20260510062019 54 143 1.7 1.7 0.00 0.00 0.00 87 1013.2
20260510061516 53 128 0.0 0.0 0.00 0.00 0.00 89 1013.1
20260510061012 54 128 0.0 0.0 0.00 0.00 0.00 88 1013.2
20260510060509 54 127 0.0 0.0 0.00 0.00 0.00 87 1013.4
20260510060006 55 125 0.0 0.0 0.00 0.00 0.00 87 1013.3
20260510055501 55 110 0.0 0.0 0.00 0.00 0.00 87 1013.1
20260510055000 55 120 0.0 0.0 0.00 0.00 0.00 86 1013.3
20260510054454 55 139 0.0 0.0 0.00 0.00 0.00 87 1013.3
20260510053950 55 137 0.0 0.0 0.00 0.00 0.00 86 1013.3
20260510053445 55 120 0.9 0.9 0.00 0.00 0.00 86 1013.3
20260510052942 54 128 0.0 0.9 0.00 0.00 0.00 87 1013.4
20260510052438 55 106 0.0 1.7 0.00 0.00 0.00 86 1013.4
20260510051934 55 147 0.0 0.9 0.00 0.00 0.00 86 1013.4
20260510051431 55 139 0.0 0.0 0.00 0.00 0.00 86 1013.3
20260510050927 55 138 0.9 2.6 0.00 0.00 0.00 85 1013.4
20260510050424 56 129 0.0 0.0 0.00 0.00 0.00 84 1013.4
20260510045921 55 125 0.0 0.9 0.00 0.00 0.00 86 1013.5
20260510045418 56 114 0.0 1.7 0.00 0.00 0.00 84 1013.4
20260510044915 56 120 0.0 0.9 0.00 0.00 0.00 84 1013.5
20260510044412 56 122 0.9 1.7 0.00 0.00 0.00 84 1013.4
20260510043908 56 137 1.7 1.7 0.00 0.00 0.00 83 1013.5
20260510043404 56 132 1.7 1.7 0.00 0.00 0.00 82 1013.3
20260510042903 56 130 0.9 1.7 0.00 0.00 0.00 83 1013.2
20260510042358 56 133 0.9 2.6 0.00 0.00 0.00 83 1013.2
20260510041854 56 121 1.7 1.7 0.00 0.00 0.00 84 1013.0
20260510041352 55 83 0.9 2.6 0.00 0.00 0.00 84 1013.1
20260510040849 54 82 0.0 0.0 0.00 0.00 0.00 87 1013.1
20260510040346 53 114 0.0 0.0 0.00 0.00 0.00 89 1013.0
20260510035841 53 120 0.0 0.0 0.00 0.00 0.00 89 1013.1
20260510035337 54 108 0.0 0.0 0.00 0.00 0.00 87 1013.1
20260510034833 54 95 0.0 0.0 0.00 0.00 0.00 88 1013.0
20260510034331 54 132 0.0 0.0 0.00 0.00 0.00 88 1013.0
20260510033827 53 91 0.0 0.0 0.00 0.00 0.00 88 1012.9
20260510033324 53 95 1.7 2.6 0.00 0.00 0.00 86 1012.9
20260510032821 55 89 0.0 0.9 0.00 0.00 0.00 85 1012.7
20260510032318 56 118 0.9 0.9 0.00 0.00 0.00 82 1012.8
20260510031813 56 121 1.7 1.7 0.00 0.00 0.00 81 1012.9
20260510031309 54 177 0.9 0.9 0.00 0.00 0.00 86 1012.8
20260510030809 53 157 0.9 1.7 0.00 0.00 0.00 89 1012.8
20260510030306 50 97 0.0 0.0 0.00 0.00 0.00 95 1012.6
20260510025803 50 0 0.0 0.0 0.00 0.00 0.00 95 1012.6
20260510025300 50 0 0.0 0.0 0.00 0.00 0.00 95 1012.8
20260510024757 50 359 0.0 0.0 0.00 0.00 0.00 95 1012.8
20260510024254 50 0 0.0 0.0 0.00 0.00 0.00 95 1012.5
20260510023750 50 0 0.0 0.0 0.00 0.00 0.00 94 1012.4
20260510023247 50 0 0.0 0.0 0.00 0.00 0.00 94 1012.4
20260510022744 50 0 0.0 0.0 0.00 0.00 0.00 94 1012.4
20260510022243 50 0 0.0 0.0 0.00 0.00 0.00 93 1012.4
20260510021743 50 0 0.0 0.0 0.00 0.00 0.00 93 1012.3
20260510021241 50 0 0.0 0.0 0.00 0.00 0.00 93 1012.3
20260510020737 51 0 0.0 0.0 0.00 0.00 0.00 92 1012.4
20260510020236 51 0 0.0 0.0 0.00 0.00 0.00 92 1012.3
20260510015733 51 0 0.0 0.0 0.00 0.00 0.00 92 1012.1
20260510015229 51 0 0.0 0.0 0.00 0.00 0.00 92 1012.0
20260510014724 51 0 0.0 0.0 0.00 0.00 0.00 90 1012.1
20260510014222 52 0 0.9 0.9 0.00 0.00 0.00 90 1012.0
20260510013717 52 130 0.0 0.0 0.00 0.00 0.00 88 1011.8
20260510013214 53 130 0.0 0.0 0.00 0.00 0.00 87 1011.9
20260510012713 53 130 0.0 0.0 0.00 0.00 0.00 86 1011.6
20260510012209 54 130 0.0 0.0 0.00 0.00 0.00 85 1011.6
20260510011704 55 130 0.0 0.0 0.00 0.00 0.00 83 1011.6
20260510011200 56 130 0.0 0.0 0.00 0.00 0.00 81 1011.4
20260510010656 57 130 0.0 0.0 0.00 0.00 0.00 79 1011.5
20260510010153 58 130 0.0 0.0 0.00 0.00 0.00 75 1011.4
20260510005649 59 128 0.0 0.0 0.00 0.00 0.00 75 1011.5
20260510005146 60 104 0.9 1.7 0.00 0.00 0.00 72 1011.3
20260510004645 60 118 0.0 0.0 0.00 0.00 0.00 71 1011.2
20260510004142 61 144 0.9 1.7 0.00 0.00 0.00 70 1011.3
20260510003639 61 159 1.7 3.5 0.00 0.00 0.00 68 1011.3
20260510003135 61 77 0.9 1.7 0.00 0.00 0.00 68 1011.2
20260510002635 61 131 0.9 3.5 0.00 0.00 0.00 67 1011.3
20260510002132 62 162 1.7 2.6 0.00 0.00 0.00 67 1010.9
20260510001628 62 136 1.7 2.6 0.00 0.00 0.00 65 1010.8
20260510001128 63 140 1.7 2.6 0.00 0.00 0.00 66 1010.9
20260510000627 63 93 0.9 1.7 0.00 0.00 0.00 64 1010.7
20260510000125 63 157 0.0 2.6 0.00 0.00 0.00 65 1010.7
20260509235621 64 197 1.7 5.2 0.00 0.00 0.00 64 1010.5
20260509235118 64 152 1.7 2.6 0.00 0.00 0.00 63 1010.7
20260509234614 64 173 2.6 3.5 0.00 0.00 0.00 64 1010.6
20260509234112 64 136 2.6 5.2 0.00 0.00 0.00 62 1010.5
20260509233609 65 178 1.7 5.2 0.00 0.00 0.00 61 1010.6
20260509233107 65 178 1.7 2.6 0.00 0.00 0.00 63 1010.4
20260509232603 65 135 0.0 3.5 0.00 0.00 0.00 62 1010.6
20260509232100 65 191 0.9 2.6 0.00 0.00 0.00 62 1010.5
20260509231556 65 183 2.6 3.5 0.00 0.00 0.00 62 1010.6
20260509231054 65 133 2.6 3.5 0.00 0.00 0.00 60 1010.4
20260509230550 66 188 3.5 5.2 0.00 0.00 0.00 61 1010.6
20260509230048 66 170 0.9 3.5 0.00 0.00 0.00 60 1010.3
20260509225543 66 175 2.6 5.2 0.00 0.00 0.00 60 1010.6
20260509225039 67 155 1.7 5.2 0.00 0.00 0.00 58 1010.8
20260509224535 66 227 1.7 7.0 0.00 0.00 0.00 60 1010.8
20260509224032 67 156 3.5 7.8 0.00 0.00 0.00 58 1010.7
20260509223529 66 136 1.7 3.5 0.00 0.00 0.00 60 1010.8
20260509223027 65 156 0.9 2.6 0.00 0.00 0.00 61 1010.8
20260509222522 65 143 3.5 7.8 0.00 0.00 0.00 60 1011.2
20260509222018 66 139 1.7 7.8 0.00 0.00 0.00 61 1010.9
20260509221514 66 166 3.5 7.0 0.00 0.00 0.00 58 1010.9
20260509221010 67 152 0.9 1.7 0.00 0.00 0.00 60 1011.2
20260509220506 67 209 3.5 6.1 0.00 0.00 0.00 58 1010.8
20260509220003 67 141 3.5 6.1 0.00 0.00 0.00 58 1010.9
20260509215458 66 197 0.9 3.5 0.00 0.00 0.00 61 1010.9
20260509214955 67 152 3.5 9.6 0.00 0.00 0.00 58 1010.9
20260509214453 67 152 4.3 7.8 0.00 0.00 0.00 60 1011.0
20260509213949 67 135 1.7 7.8 0.00 0.00 0.00 60 1011.0
20260509213445 67 203 0.9 6.1 0.00 0.00 0.00 60 1010.9
20260509212943 68 187 5.2 6.1 0.00 0.00 0.00 59 1010.9
20260509212440 68 182 1.7 6.1 0.00 0.00 0.00 57 1010.9
20260509211936 68 135 1.7 5.2 0.00 0.00 0.00 64 1010.9
20260509211432 67 275 2.6 3.5 0.00 0.00 0.00 61 1010.9
20260509210928 68 178 1.7 6.1 0.00 0.00 0.00 61 1010.9
20260509210426 66 99 0.9 2.6 0.00 0.00 0.00 67 1010.7
20260509205921 65 146 2.6 7.0 0.00 0.00 0.00 62 1011.2
20260509205420 66 144 1.7 3.5 0.00 0.00 0.00 63 1011.2
20260509204917 65 164 2.6 5.2 0.00 0.00 0.00 66 1010.9
20260509204413 66 169 4.3 6.1 0.00 0.00 0.00 63 1011.3
20260509203910 67 136 4.3 7.0 0.00 0.00 0.00 62 1010.9
20260509203406 68 151 1.7 5.2 0.00 0.00 0.00 61 1010.9
20260509202904 67 120 1.7 6.1 0.00 0.00 0.00 62 1011.2
20260509202359 67 261 1.7 6.1 0.00 0.00 0.00 63 1011.0
20260509201854 67 163 4.3 8.7 0.00 0.00 0.00 64 1011.0
20260509201350 67 221 3.5 8.7 0.00 0.00 0.00 62 1011.2
20260509200847 67 227 1.7 3.5 0.00 0.00 0.00 64 1011.4
20260509200342 67 217 9.6 13.9 0.00 0.00 0.00 68 1011.3
20260509195839 67 261 3.5 7.0 0.00 0.00 0.00 66 1011.5
20260509195339 66 201 5.2 8.7 0.00 0.00 0.00 64 1011.6
20260509194839 65 166 3.5 5.2 0.00 0.00 0.00 66 1011.5
20260509194335 65 126 3.5 6.1 0.00 0.00 0.00 66 1011.7
20260509193833 64 227 0.9 3.5 0.00 0.00 0.00 66 1011.8
20260509193332 64 178 1.7 5.2 0.00 0.00 0.00 69 1011.7
20260509192829 64 97 0.0 2.6 0.00 0.00 0.00 70 1011.8
20260509192325 64 119 0.9 7.8 0.00 0.00 0.00 69 1011.7
20260509191820 64 154 3.5 3.5 0.00 0.00 0.00 66 1011.6
20260509191316 64 144 4.3 6.1 0.00 0.00 0.00 66 1011.7
20260509190812 64 123 4.3 5.2 0.00 0.00 0.00 66 1011.9
20260509190310 64 227 1.7 2.6 0.00 0.00 0.00 64 1011.9
20260509185807 63 168 4.3 6.1 0.00 0.00 0.00 68 1011.8
20260509185306 63 151 7.0 9.6 0.00 0.00 0.00 68 1012.0
20260509184800 64 146 2.6 5.2 0.00 0.00 0.00 75 1011.7
20260509184258 64 176 3.5 6.1 0.00 0.00 0.00 74 1011.7
20260509183754 64 142 3.5 3.5 0.00 0.00 0.00 76 1011.8
20260509183249 62 158 3.5 5.2 0.00 0.00 0.00 77 1012.0
20260509182745 62 96 1.7 3.5 0.00 0.00 0.00 77 1011.7
20260509182243 62 151 2.6 6.1 0.00 0.00 0.00 77 1011.9
20260509181740 60 115 2.6 3.5 0.00 0.00 0.00 79 1011.8
20260509181237 60 134 1.7 2.6 0.00 0.00 0.00 80 1011.6
20260509180734 60 153 0.9 3.5 0.00 0.00 0.00 80 1011.9
20260509180226 60 127 1.7 5.2 0.00 0.00 0.00 81 1011.7
20260509175722 59 116 3.5 5.2 0.00 0.00 0.00 86 1011.8
20260509175218 59 80 1.7 2.6 0.00 0.00 0.00 86 1011.8
20260509174714 58 111 3.5 6.1 0.00 0.00 0.00 87 1011.9
20260509174209 58 112 3.5 6.1 0.00 0.00 0.00 86 1011.7
20260509173706 58 103 1.7 2.6 0.00 0.00 0.00 86 1011.9
20260509173201 58 172 0.0 2.6 0.00 0.00 0.00 88 1011.9
20260509172658 58 124 1.7 2.6 0.00 0.00 0.00 87 1012.2
20260509172154 58 121 1.7 3.5 0.00 0.00 0.00 90 1012.0
20260509171650 58 183 2.6 3.5 0.00 0.00 0.00 88 1012.1
20260509171146 57 148 1.7 2.6 0.00 0.00 0.00 90 1011.9
20260509170643 57 173 0.0 1.7 0.00 0.00 0.00 90 1012.1
20260509170139 56 93 0.9 2.6 0.00 0.00 0.00 89 1012.1
20260509165638 56 143 0.9 2.6 0.00 0.00 0.00 91 1012.0
20260509165133 56 123 0.9 1.7 0.00 0.00 0.00 92 1012.3
20260509164630 57 106 0.9 0.9 0.00 0.00 0.00 91 1012.2
20260509164126 56 140 0.9 1.7 0.00 0.00 0.00 90 1012.1
20260509163623 57 118 3.5 3.5 0.00 0.00 0.00 89 1012.3
20260509163118 56 169 0.9 1.7 0.00 0.00 0.00 91 1012.1
20260509162616 56 173 1.7 2.6 0.00 0.00 0.00 92 1012.2
20260509162112 56 127 2.6 3.5 0.00 0.00 0.00 91 1012.0
20260509161609 56 95 1.7 1.7 0.00 0.00 0.00 94 1012.1
20260509161109 55 117 0.0 0.0 0.00 0.00 0.00 95 1012.1
20260509160605 55 79 0.9 0.9 0.00 0.00 0.00 94 1012.1
20260509160100 55 136 1.7 1.7 0.00 0.00 0.00 94 1012.2
20260509155557 54 124 0.9 1.7 0.00 0.00 0.00 94 1012.3
20260509155053 54 147 0.9 1.7 0.00 0.00 0.00 94 1012.3
20260509154549 54 70 1.7 1.7 0.00 0.00 0.00 93 1012.5
20260509154047 54 104 1.7 2.6 0.00 0.00 0.00 92 1012.4
20260509153543 55 137 1.7 2.6 0.00 0.00 0.00 93 1012.3
20260509153034 55 93 2.6 2.6 0.00 0.00 0.00 93 1012.6
20260509152530 55 79 1.7 2.6 0.00 0.00 0.00 94 1012.6
20260509152027 55 79 0.9 0.9 0.00 0.00 0.00 95 1012.5
20260509151524 55 79 0.9 0.9 0.00 0.00 0.00 95 1012.4
20260509151022 54 97 1.7 1.7 0.00 0.00 0.00 94 1012.7
20260509150519 54 126 0.9 1.7 0.00 0.00 0.00 93 1012.6
20260509150017 54 101 0.9 0.9 0.00 0.00 0.00 95 1012.5
20260509145512 54 105 0.9 0.9 0.00 0.00 0.00 94 1012.8
20260509145008 54 89 0.0 0.0 0.00 0.00 0.00 95 1012.8
20260509144505 54 89 0.0 0.0 0.00 0.00 0.00 95 1012.6
20260509144002 54 89 0.0 0.0 0.00 0.00 0.00 95 1012.8
20260509143459 53 98 0.0 0.0 0.00 0.00 0.00 95 1012.8
20260509142955 53 98 0.9 1.7 0.00 0.00 0.00 95 1012.7
20260509142452 53 93 0.0 0.0 0.00 0.00 0.00 95 1012.7
20260509141947 53 89 0.9 0.9 0.00 0.00 0.00 96 1012.5
20260509141444 53 104 0.9 1.7 0.00 0.00 0.00 96 1012.7
20260509140941 53 89 0.0 0.9 0.00 0.00 0.00 96 1012.6
20260509140437 53 101 0.0 0.9 0.00 0.00 0.00 96 1012.7
20260509135936 53 101 0.9 1.7 0.00 0.00 0.00 96 1012.8
20260509135433 53 101 0.0 0.0 0.00 0.00 0.00 96 1013.0
20260509134930 53 93 0.9 1.7 0.00 0.00 0.00 95 1012.8
20260509134427 53 162 0.0 2.6 0.00 0.00 0.00 96 1012.8
20260509133924 53 114 0.0 0.0 0.00 0.00 0.00 97 1013.0
20260509133421 52 114 0.0 0.0 0.00 0.00 0.00 96 1013.0
20260509132919 52 114 0.0 0.0 0.00 0.00 0.00 97 1013.0
20260509132417 52 117 0.0 0.0 0.00 0.00 0.00 97 1012.8
20260509131914 52 119 0.0 0.9 0.00 0.00 0.00 97 1012.9
20260509131411 52 85 0.9 1.7 0.00 0.00 0.00 97 1012.9
20260509130908 52 142 0.9 1.7 0.00 0.00 0.00 97 1012.8
20260509130403 52 101 0.0 0.9 0.00 0.00 0.00 97 1012.8
20260509125900 52 111 0.0 0.0 0.00 0.00 0.00 97 1012.8
20260509125356 51 107 0.0 0.9 0.00 0.00 0.00 97 1012.9
20260509124852 51 148 0.0 0.9 0.00 0.00 0.00 97 1012.9
20260509124350 51 102 0.0 0.9 0.00 0.00 0.00 98 1013.2
20260509123848 51 106 0.0 0.0 0.00 0.00 0.00 98 1013.1
20260509123345 51 103 0.0 1.7 0.00 0.00 0.00 98 1013.1
20260509122840 51 120 0.0 1.7 0.00 0.00 0.00 98 1013.2
20260509122337 51 107 0.0 0.0 0.00 0.00 0.00 98 1013.4
20260509121834 51 107 0.0 0.9 0.00 0.00 0.00 98 1013.2
20260509121331 51 107 0.9 1.7 0.00 0.00 0.00 98 1013.3
20260509120830 51 120 0.0 0.9 0.00 0.00 0.00 98 1013.3
20260509120327 51 115 0.9 1.7 0.00 0.00 0.00 98 1013.1
20260509115825 51 98 0.0 0.0 0.00 0.00 0.00 98 1013.3
20260509115322 51 100 0.9 0.9 0.00 0.00 0.00 98 1013.2
20260509114819 51 105 0.0 0.0 0.00 0.00 0.00 98 1013.0
20260509114318 51 90 1.7 1.7 0.00 0.00 0.00 97 1013.1
20260509113817 51 283 0.0 0.0 0.00 0.00 0.00 98 1013.2
20260509113313 50 59 0.0 0.0 0.00 0.00 0.00 98 1013.1
20260509112810 50 115 0.0 0.0 0.00 0.00 0.00 98 1013.1
20260509112308 50 113 0.0 0.0 0.00 0.00 0.00 98 1013.1
20260509111804 50 113 0.0 0.0 0.00 0.00 0.00 98 1013.1
20260509111301 50 113 0.0 0.0 0.00 0.00 0.00 98 1013.0
20260509110759 50 113 0.0 0.0 0.00 0.00 0.00 98 1012.8
20260509110255 50 112 0.0 0.0 0.00 0.00 0.00 98 1012.7
20260509105753 50 112 0.0 0.0 0.00 0.00 0.00 97 1012.7
20260509105250 50 112 0.0 0.0 0.00 0.00 0.00 97 1012.7
20260509104747 50 113 0.0 0.0 0.00 0.00 0.00 97 1012.7
20260509104244 50 114 0.0 0.0 0.00 0.00 0.00 97 1012.9
20260509103742 50 114 0.0 0.0 0.00 0.00 0.00 97 1012.7
20260509103239 50 114 0.0 0.0 0.00 0.00 0.00 97 1012.7
20260509102738 50 114 0.0 0.0 0.00 0.00 0.00 97 1012.8
20260509102234 50 97 0.0 0.0 0.00 0.00 0.00 97 1012.8
20260509101730 50 90 0.0 0.0 0.00 0.00 0.00 97 1012.8
20260509101227 50 90 0.0 0.0 0.00 0.00 0.00 97 1012.8
20260509100724 50 127 0.0 0.0 0.00 0.00 0.00 97 1012.9
20260509100221 50 125 0.9 0.9 0.00 0.00 0.00 97 1012.8
20260509095718 50 100 0.9 2.6 0.00 0.00 0.00 97 1012.9
20260509095215 50 133 0.9 0.9 0.00 0.00 0.00 97 1012.9
20260509094712 50 107 0.0 0.9 0.00 0.00 0.00 96 1012.9
20260509094209 51 114 0.9 0.9 0.00 0.00 0.00 95 1013.0
20260509093708 51 118 0.0 0.0 0.00 0.00 0.00 93 1012.9
20260509093204 51 160 0.0 0.0 0.00 0.00 0.00 94 1013.1
20260509092702 51 57 0.0 0.9 0.00 0.00 0.00 93 1013.0
20260509092200 51 295 0.9 1.7 0.00 0.00 0.00 93 1012.9
20260509091658 51 279 0.0 0.0 0.00 0.00 0.00 93 1013.3
20260509091154 51 335 0.0 0.0 0.00 0.00 0.00 93 1013.2
20260509090652 51 336 0.0 0.0 0.00 0.00 0.00 91 1013.4
20260509090148 51 334 0.0 0.0 0.00 0.00 0.00 90 1013.4
20260509085646 51 39 0.0 0.0 0.00 0.00 0.00 89 1013.4
20260509085142 52 90 0.9 0.9 0.00 0.00 0.00 89 1013.5
20260509084640 52 235 0.9 2.6 0.00 0.00 0.00 86 1013.5
20260509084137 52 278 0.0 1.7 0.00 0.00 0.00 85 1013.2
20260509083634 53 289 0.9 1.7 0.00 0.00 0.00 86 1013.2
20260509083130 53 290 1.7 2.6 0.00 0.00 0.00 81 1013.3
20260509082628 54 268 2.6 7.0 0.00 0.00 0.00 77 1013.1
20260509082124 55 211 2.6 3.5 0.00 0.00 0.00 74 1013.3
20260509081621 55 267 0.0 3.5 0.00 0.00 0.00 71 1013.3
20260509081119 55 285 1.7 5.2 0.00 0.00 0.00 70 1013.2
20260509080617 55 126 0.9 5.2 0.00 0.00 0.00 71 1013.2
20260509080114 54 183 0.9 2.6 0.00 0.00 0.00 73 1013.2
20260509075612 54 128 0.0 0.0 0.00 0.00 0.00 74 1012.6
20260509075110 55 239 0.0 0.0 0.00 0.00 0.00 70 1012.5
20260509074606 54 244 0.0 0.0 0.00 0.00 0.00 73 1012.4
20260509074103 54 136 0.0 0.0 0.00 0.00 0.00 75 1012.3
20260509073600 54 120 0.9 2.6 0.00 0.00 0.00 74 1012.3
20260509073056 54 163 0.9 1.7 0.00 0.00 0.00 73 1012.2